LTR318 LZIB-LIRF

Flight info

Callsign LTR318
Flight time N/A
Altitude 38000
Route TOVKA DCT GOLVA DCT PUL DCT BAXON/N0448F390 DCT UNUMU DCT ETPOK T369 RITEB
Aircraft A20N/M-SDE2E3FGHIRWXY/LB1

Departure

Time 2026-04-27 15:55
Airport M. R. Štefánik Airport (LZIB)

Arrival

Time N/A
Airport Rome–Fiumicino Leonardo da Vinci International Airport (LIRF)
Time Latitude Longitude Altitude Speed Heading
2026-04-27 15:23 48.16976 17.20171 431 ft 0 kts 314°
2026-04-27 15:40 48.16973 17.20175 431 ft 2 kts 314°
2026-04-27 15:40 48.16962 17.20193 426 ft 3 kts 313°
2026-04-27 15:40 48.16946 17.20216 429 ft 3 kts 352°
2026-04-27 15:40 48.16935 17.20215 424 ft 0 kts 34°
2026-04-27 15:49 48.16936 17.20216 424 ft 1 kts 34°
2026-04-27 15:49 48.16938 17.20225 424 ft 2 kts 64°
2026-04-27 15:49 48.16958 17.20271 421 ft 9 kts 46°
2026-04-27 15:50 48.17027 17.20373 428 ft 18 kts 44°
2026-04-27 15:50 48.17126 17.20516 425 ft 19 kts 44°
2026-04-27 15:50 48.17212 17.20566 430 ft 15 kts 340°
2026-04-27 15:50 48.17308 17.20431 430 ft 23 kts 314°
2026-04-27 15:51 48.17423 17.20303 422 ft 16 kts 351°
2026-04-27 15:51 48.17462 17.20306 430 ft 0 kts 11°
2026-04-27 15:53 48.17489 17.20320 424 ft 9 kts 26°
2026-04-27 15:54 48.17539 17.20393 422 ft 9 kts 50°
2026-04-27 15:54 48.17549 17.20433 428 ft 2 kts 134°
2026-04-27 15:54 48.17523 17.20470 422 ft 7 kts 133°
2026-04-27 15:54 48.17459 17.20574 431 ft 32 kts 132°
2026-04-27 15:55 48.17117 17.21103 416 ft 103 kts 134°
2026-04-27 15:55 48.16471 17.22106 421 ft 164 kts 134°
2026-04-27 15:55 48.15609 17.23395 1017 ft 176 kts 135°
2026-04-27 15:55 48.14706 17.24699 1742 ft 186 kts 136°
2026-04-27 15:56 48.13713 17.26111 2418 ft 207 kts 136°
2026-04-27 15:56 48.12668 17.27661 3204 ft 214 kts 132°
2026-04-27 15:56 48.11661 17.29326 4116 ft 217 kts 131°
2026-04-27 15:56 48.10827 17.31214 4969 ft 221 kts 106°
2026-04-27 15:57 48.10761 17.33497 5761 ft 225 kts 72°
2026-04-27 15:57 48.11538 17.35527 6573 ft 224 kts 42°
2026-04-27 15:57 48.12676 17.37117 7413 ft 225 kts 37°
2026-04-27 15:57 48.13997 17.38328 8230 ft 221 kts 11°
2026-04-27 15:58 48.15107 17.38489 8811 ft 218 kts 349°
2026-04-27 15:58 48.16546 17.37667 9666 ft 217 kts 326°
2026-04-27 15:58 48.17885 17.36397 10194 ft 235 kts 326°
2026-04-27 15:58 48.19324 17.35061 10693 ft 248 kts 327°
2026-04-27 15:59 48.20808 17.33709 11459 ft 251 kts 327°
2026-04-27 15:59 48.22338 17.32320 11994 ft 266 kts 327°
2026-04-27 15:59 48.23918 17.30715 12288 ft 288 kts 315°
2026-04-27 15:59 48.25070 17.28213 12555 ft 311 kts 292°
2026-04-27 16:00 48.25484 17.24855 12966 ft 330 kts 272°
2026-04-27 16:00 48.25436 17.22561 13507 ft 334 kts 269°
2026-04-27 16:00 48.25182 17.17927 14566 ft 339 kts 267°
2026-04-27 16:00 48.24994 17.14400 15279 ft 343 kts 268°
2026-04-27 16:01 48.24836 17.10747 16009 ft 346 kts 269°
2026-04-27 16:01 48.24708 17.07152 16713 ft 350 kts 269°
2026-04-27 16:01 48.24699 17.03488 17070 ft 352 kts 277°
2026-04-27 16:01 48.25056 17.00153 17149 ft 351 kts 285°
2026-04-27 16:02 48.25851 16.96628 17161 ft 349 kts 294°
2026-04-27 16:02 48.26584 16.93204 17293 ft 354 kts 279°
2026-04-27 16:02 48.26601 16.90591 17749 ft 359 kts 265°
2026-04-27 16:02 48.25917 16.87024 18503 ft 367 kts 247°
2026-04-27 16:03 48.24448 16.83826 19086 ft 378 kts 229°
2026-04-27 16:03 48.22476 16.81537 19648 ft 388 kts 212°
2026-04-27 16:03 48.19838 16.80066 20262 ft 398 kts 194°
2026-04-27 16:03 48.17128 16.79756 20830 ft 406 kts 183°
2026-04-27 16:04 48.14284 16.79549 21392 ft 407 kts 191°
2026-04-27 16:04 48.11474 16.78638 21986 ft 405 kts 201°
2026-04-27 16:04 48.08860 16.77148 22538 ft 406 kts 208°
2026-04-27 16:04 48.06257 16.75237 23162 ft 407 kts 211°
2026-04-27 16:05 48.03764 16.73205 23736 ft 409 kts 213°
2026-04-27 16:05 48.01313 16.71140 24203 ft 412 kts 213°
2026-04-27 16:05 47.98771 16.68988 24679 ft 415 kts 213°
2026-04-27 16:05 47.96242 16.66858 25130 ft 418 kts 213°
2026-04-27 16:06 47.93686 16.64719 25565 ft 421 kts 213°
2026-04-27 16:06 47.91090 16.62556 25998 ft 425 kts 213°
2026-04-27 16:06 47.88519 16.60420 26439 ft 427 kts 213°
2026-04-27 16:06 47.85825 16.58185 26866 ft 430 kts 213°
2026-04-27 16:07 47.83220 16.56027 27262 ft 433 kts 213°
2026-04-27 16:07 47.80597 16.53856 27667 ft 435 kts 213°
2026-04-27 16:07 47.77923 16.51645 28056 ft 438 kts 213°
2026-04-27 16:07 47.75244 16.49434 28437 ft 441 kts 213°
2026-04-27 16:08 47.72550 16.47211 28802 ft 443 kts 213°
2026-04-27 16:08 47.69850 16.44987 29160 ft 446 kts 213°
2026-04-27 16:08 47.67106 16.42729 29511 ft 449 kts 213°
2026-04-27 16:08 47.64370 16.40480 29840 ft 451 kts 213°
2026-04-27 16:09 47.61615 16.38219 30177 ft 454 kts 213°
2026-04-27 16:09 47.56011 16.33627 30763 ft 459 kts 213°
2026-04-27 16:09 47.53242 16.31363 31036 ft 461 kts 213°
2026-04-27 16:10 47.41898 16.22117 32465 ft 462 kts 213°
2026-04-27 16:11 47.39091 16.19836 32849 ft 461 kts 213°
2026-04-27 16:11 47.33437 16.15250 33580 ft 459 kts 213°
2026-04-27 16:12 47.27659 16.10574 34293 ft 457 kts 213°
2026-04-27 16:12 47.24871 16.08322 34594 ft 457 kts 213°
2026-04-27 16:12 47.20095 16.04470 35074 ft 455 kts 213°
2026-04-27 16:13 47.17325 16.02240 35333 ft 455 kts 213°
2026-04-27 16:13 47.11770 15.97775 35853 ft 454 kts 213°
2026-04-27 16:13 47.09004 15.95556 36101 ft 453 kts 213°
2026-04-27 16:14 47.03469 15.91123 36574 ft 452 kts 213°
2026-04-27 16:14 46.97917 15.86688 37042 ft 451 kts 212°
2026-04-27 16:15 46.92366 15.82264 37345 ft 450 kts 212°
2026-04-27 16:15 46.86825 15.77861 37122 ft 447 kts 212°
2026-04-27 16:16 46.75779 15.69109 37120 ft 449 kts 212°
2026-04-27 16:17 46.65125 15.59561 37121 ft 446 kts 218°
2026-04-27 16:18 46.54751 15.49270 37124 ft 446 kts 218°
2026-04-27 16:19 46.49621 15.44213 37120 ft 445 kts 218°
2026-04-27 16:20 46.39351 15.34129 37116 ft 445 kts 218°
2026-04-27 16:21 46.31651 15.26597 37110 ft 445 kts 217°
2026-04-27 16:22 46.21391 15.16603 37110 ft 445 kts 217°
2026-04-27 16:22 46.13852 15.09289 37106 ft 444 kts 217°
2026-04-27 16:23 46.06113 15.01806 37107 ft 444 kts 217°
2026-04-27 16:24 46.00943 14.96820 37112 ft 444 kts 217°
2026-04-27 16:25 45.91226 14.87483 37106 ft 444 kts 217°
2026-04-27 16:26 45.80686 14.77399 37103 ft 444 kts 217°
2026-04-27 16:27 45.70419 14.67630 37096 ft 444 kts 217°
2026-04-27 16:28 45.57545 14.55423 37096 ft 443 kts 216°
2026-04-27 16:29 45.45468 14.44041 37076 ft 442 kts 216°
2026-04-27 16:30 45.35193 14.34403 37075 ft 442 kts 216°
2026-04-27 16:31 45.22374 14.22439 37071 ft 441 kts 216°
2026-04-27 16:32 45.14628 14.15242 37070 ft 441 kts 216°
2026-04-27 16:33 45.06853 14.08040 37069 ft 441 kts 216°
2026-04-27 16:33 45.01679 14.03263 37069 ft 441 kts 216°
2026-04-27 16:34 44.96536 13.98523 37073 ft 441 kts 216°
2026-04-27 16:34 44.91394 13.93791 37075 ft 441 kts 216°
2026-04-27 16:35 44.86268 13.89018 37072 ft 441 kts 217°
2026-04-27 16:36 44.78667 13.81643 37073 ft 440 kts 217°
2026-04-27 16:36 44.73607 13.76770 37071 ft 440 kts 217°
2026-04-27 16:37 44.68504 13.71878 37069 ft 440 kts 217°
2026-04-27 16:37 44.63473 13.67069 37068 ft 440 kts 217°
2026-04-27 16:38 44.58346 13.62178 37064 ft 440 kts 217°
2026-04-27 16:38 44.53282 13.57357 37064 ft 439 kts 217°
2026-04-27 16:39 44.48138 13.52469 37063 ft 440 kts 217°
2026-04-27 16:39 44.43062 13.47657 37063 ft 439 kts 216°
2026-04-27 16:40 44.37785 13.43364 37062 ft 441 kts 211°
2026-04-27 16:40 44.32381 13.39264 37067 ft 441 kts 211°
2026-04-27 16:41 44.26987 13.35169 37063 ft 441 kts 211°
2026-04-27 16:41 44.21584 13.31075 37058 ft 440 kts 211°
2026-04-27 16:42 44.16167 13.26980 37062 ft 441 kts 211°
2026-04-27 16:42 44.10772 13.22911 37062 ft 440 kts 211°
2026-04-27 16:43 44.05337 13.18820 37063 ft 440 kts 211°
2026-04-27 16:43 44.00791 13.15406 37066 ft 440 kts 211°
2026-04-27 16:44 43.95395 13.11360 37062 ft 440 kts 211°
2026-04-27 16:44 43.89998 13.07322 37064 ft 440 kts 211°
2026-04-27 16:45 43.84610 13.03299 37061 ft 440 kts 211°
2026-04-27 16:45 43.79174 12.99248 37062 ft 439 kts 211°
2026-04-27 16:46 43.73745 12.95212 37064 ft 439 kts 211°
2026-04-27 16:46 43.68354 12.91211 37059 ft 439 kts 211°
2026-04-27 16:47 43.62985 12.87235 37065 ft 439 kts 211°
2026-04-27 16:47 43.57543 12.83214 37067 ft 438 kts 210°
2026-04-27 16:48 43.52158 12.79243 37062 ft 439 kts 210°
2026-04-27 16:48 43.46763 12.75272 37069 ft 438 kts 210°
2026-04-27 16:49 43.38797 12.69058 37059 ft 437 kts 214°
2026-04-27 16:49 43.33622 12.64668 37057 ft 437 kts 214°
2026-04-27 16:50 43.31040 12.62484 36934 ft 434 kts 214°
2026-04-27 16:50 43.28439 12.60290 36527 ft 431 kts 214°
2026-04-27 16:50 43.25880 12.58135 36001 ft 428 kts 214°
2026-04-27 16:50 43.23366 12.56020 35485 ft 425 kts 214°
2026-04-27 16:51 43.20844 12.53901 34951 ft 422 kts 214°
2026-04-27 16:51 43.18365 12.51820 34443 ft 418 kts 214°
2026-04-27 16:51 43.15865 12.49722 33940 ft 415 kts 213°
2026-04-27 16:51 43.13417 12.47672 33381 ft 412 kts 213°
2026-04-27 16:52 43.10972 12.45625 32822 ft 409 kts 214°
2026-04-27 16:52 43.08572 12.43619 32294 ft 406 kts 214°
2026-04-27 16:52 43.06169 12.41611 31779 ft 403 kts 214°
2026-04-27 16:52 43.03763 12.39603 31251 ft 401 kts 214°
2026-04-27 16:53 43.01384 12.37618 30742 ft 398 kts 214°
2026-04-27 16:53 42.99032 12.35658 30254 ft 395 kts 214°
2026-04-27 16:53 42.96689 12.33707 29700 ft 393 kts 214°
2026-04-27 16:53 42.94366 12.31774 29166 ft 390 kts 214°
2026-04-27 16:54 42.92019 12.29825 28622 ft 387 kts 213°
2026-04-27 16:54 42.89686 12.27887 28075 ft 385 kts 213°
2026-04-27 16:54 42.87407 12.25997 27552 ft 383 kts 213°
2026-04-27 16:54 42.85143 12.24120 27035 ft 381 kts 213°
2026-04-27 16:55 42.82905 12.22266 26530 ft 379 kts 213°
2026-04-27 16:55 42.80638 12.20391 26037 ft 377 kts 213°
2026-04-27 16:55 42.78408 12.18571 25549 ft 375 kts 210°
2026-04-27 16:55 42.76004 12.17196 25066 ft 376 kts 198°
2026-04-27 16:56 42.73424 12.16524 24580 ft 377 kts 186°
2026-04-27 16:56 42.70790 12.16521 24104 ft 377 kts 173°
2026-04-27 16:56 42.68297 12.17494 23625 ft 376 kts 156°
2026-04-27 16:56 42.65961 12.19164 23133 ft 374 kts 149°
2026-04-27 16:57 42.63762 12.20999 22656 ft 371 kts 147°
2026-04-27 16:57 42.61583 12.22853 22191 ft 368 kts 148°
2026-04-27 16:57 42.59417 12.24662 21734 ft 366 kts 148°
2026-04-27 16:57 42.57238 12.26443 21283 ft 363 kts 148°
2026-04-27 16:58 42.55094 12.28169 20853 ft 361 kts 149°
2026-04-27 16:58 42.52933 12.29896 20437 ft 358 kts 149°
2026-04-27 16:58 42.50770 12.31619 19978 ft 356 kts 149°
2026-04-27 16:58 42.48661 12.33296 19556 ft 354 kts 149°
2026-04-27 16:59 42.46522 12.34996 19145 ft 352 kts 149°
2026-04-27 16:59 42.44438 12.36654 18743 ft 350 kts 148°
2026-04-27 16:59 42.42347 12.38317 18336 ft 348 kts 148°
2026-04-27 16:59 42.40254 12.39981 17898 ft 345 kts 149°
2026-04-27 17:00 42.37518 12.42153 17343 ft 341 kts 149°
2026-04-27 17:00 42.33914 12.44217 16639 ft 337 kts 163°
2026-04-27 17:00 42.31682 12.45140 16234 ft 334 kts 163°
2026-04-27 17:01 42.29461 12.46069 15831 ft 331 kts 163°
2026-04-27 17:01 42.27278 12.46987 15442 ft 329 kts 163°
2026-04-27 17:01 42.25028 12.47407 15041 ft 324 kts 186°
2026-04-27 17:01 42.22901 12.46648 14659 ft 317 kts 209°
2026-04-27 17:02 42.21191 12.44823 14279 ft 309 kts 233°
2026-04-27 17:02 42.20223 12.42332 13911 ft 302 kts 255°
2026-04-27 17:02 42.19827 12.40431 13598 ft 301 kts 258°
2026-04-27 17:02 42.19713 12.38065 13199 ft 299 kts 278°
2026-04-27 17:03 42.20369 12.35341 12723 ft 297 kts 301°
2026-04-27 17:03 42.21737 12.33246 12218 ft 298 kts 324°
2026-04-27 17:03 42.23619 12.32041 11760 ft 298 kts 342°
2026-04-27 17:03 42.25606 12.31224 11328 ft 297 kts 343°
2026-04-27 17:04 42.27598 12.30397 10912 ft 296 kts 343°
2026-04-27 17:04 42.29559 12.29577 10494 ft 295 kts 343°
2026-04-27 17:04 42.31524 12.28749 10095 ft 294 kts 343°
2026-04-27 17:04 42.33478 12.27924 9723 ft 293 kts 343°
2026-04-27 17:05 42.35434 12.27099 9205 ft 296 kts 343°
2026-04-27 17:05 42.37425 12.26258 8800 ft 293 kts 343°
2026-04-27 17:05 42.39303 12.25227 8384 ft 291 kts 327°
2026-04-27 17:05 42.40337 12.23973 8186 ft 287 kts 309°
2026-04-27 17:06 42.41319 12.20665 7736 ft 281 kts 272°
2026-04-27 17:06 42.41003 12.18094 7626 ft 268 kts 251°
2026-04-27 17:06 42.40417 12.15724 7523 ft 256 kts 251°
2026-04-27 17:06 42.39875 12.13495 7414 ft 243 kts 252°
2026-04-27 17:07 42.39110 12.11497 7300 ft 229 kts 226°
2026-04-27 17:07 42.37849 12.10348 7194 ft 216 kts 197°
2026-04-27 17:07 42.36373 12.10190 6944 ft 210 kts 167°
2026-04-27 17:07 42.35003 12.10757 6651 ft 210 kts 161°
2026-04-27 17:08 42.33619 12.11363 6364 ft 209 kts 162°
2026-04-27 17:08 42.32223 12.11960 6147 ft 203 kts 162°
2026-04-27 17:08 42.30914 12.12513 6064 ft 186 kts 162°
2026-04-27 17:08 42.29729 12.13011 5975 ft 173 kts 162°
2026-04-27 17:09 42.28613 12.13480 5856 ft 162 kts 162°
2026-04-27 17:09 42.27526 12.13939 5611 ft 159 kts 162°
2026-04-27 17:09 42.26827 12.14233 5446 ft 159 kts 162°
2026-04-27 17:09 42.25408 12.14831 5096 ft 159 kts 162°
2026-04-27 17:10 42.24699 12.15129 4999 ft 153 kts 162°
2026-04-27 17:10 42.23694 12.15553 4997 ft 161 kts 162°
2026-04-27 17:10 42.22619 12.16006 4993 ft 158 kts 162°
2026-04-27 17:10 42.21600 12.16436 4992 ft 159 kts 162°
2026-04-27 17:11 42.20491 12.16904 4989 ft 159 kts 162°
2026-04-27 17:11 42.18366 12.17803 5053 ft 158 kts 162°
2026-04-27 17:11 42.17332 12.18247 5060 ft 159 kts 161°
2026-04-27 17:12 42.15197 12.19121 5063 ft 159 kts 172°
2026-04-27 17:12 42.14111 12.18995 5081 ft 159 kts 194°
2026-04-27 17:12 42.13031 12.18631 5081 ft 159 kts 193°
2026-04-27 17:13 42.11948 12.18283 5087 ft 160 kts 197°
2026-04-27 17:13 42.11068 12.17349 5099 ft 166 kts 242°
2026-04-27 17:13 42.10372 12.16146 5031 ft 164 kts 205°
2026-04-27 17:13 42.09666 12.15912 4998 ft 165 kts 182°
2026-04-27 17:14 42.08235 12.16192 4766 ft 163 kts 164°